User: anonymous   Login
Location: Unspecified
(0.0000°N, 0.0000°E)
Time: 11:25:31
(UTC+02:00)
Language:

Cosmos 1980 Rocket - Orbit

View from above orbital plane
View from above orbital plane
View from above satellite
View from above satellite

Ground track
Ground track

The orbit data is extracted from the following two-line orbital elements,

1 19650U 88102B   16179.03810091 -.00000225  00000-0 -90150-4 0  9996
2 19650  70.9997  41.8677 0014338 354.6146   5.4820 14.15740361425726
Epoch (UTC): 27 June 2016 00:54:51
Eccentricity: 0.0014338
inclination: 70.9997°
perigee height: 829 km
apogee height: 850 km
right ascension of ascending node: 41.8677°
argument of perigee: 354.6146°
revolutions per day: 14.15740361
mean anomaly at epoch: 5.4820°
orbit number at epoch: 42572

The dashed part of the orbit path shows where the satellite is in the earth's shadow,  

DLR